Temp
-10 -9 -9 -9 -9 -8 -7 -7 -6 -6 -5 -5 -4 -3 -3 -2 -2 -2 -1 -1 -1 -0 0 0 1 1 1 1 2 2 2 3 3 4 4 4 4 4 4 4 4 5 5
-11 -11 -10 -10 -9 -9 -8 -8 -8 -7 -6 -6 -5 -5 -4 -4 -3 -3 -2 -2 -2 -1 -1 -1 -0 0 0 1 1 1 2 2 3 3 3 3 3 3 4 4 4 4 4
-11 -11 -11 -10 -10 -10 -9 -9 -9 -8 -8 -7 -7 -6 -5 -5 -4 -4 -3 -3 -2 -2 -2 -1 -1 -1 -0 -0 0 0 1 1 1 2 3 3 3 3 3 3 3 3 3
-12 -12 -12 -11 -11 -10 -10 -9 -9 -8 -8 -8 -7 -7 -6 -6 -5 -5 -4 -4 -3 -3 -3 -2 -2 -2 -1 -1 -1 -1 -0 0 1 1 2 2 2 2 2 2 2 3 3
-13 -12 -12 -12 -11 -11 -11 -10 -9 -9 -9 -8 -8 -7 -7 -7 -6 -6 -5 -5 -4 -4 -3 -3 -3 -2 -2 -2 -1 -1 -1 -1 -0 0 1 1 1 1 1 1 2 2 2
-13 -12 -12 -12 -12 -11 -11 -11 -10 -10 -10 -9 -9 -8 -8 -7 -7 -7 -6 -6 -5 -5 -4 -4 -4 -3 -3 -3 -2 -2 -2 -1 -1 -1 -0 0 0 0 1 1 1 2 2
-13 -13 -13 -12 -12 -12 -12 -11 -11 -10 -10 -10 -10 -10 -9 -9 -8 -8 -7 -7 -6 -6 -5 -5 -5 -4 -4 -4 -3 -3 -2 -2 -2 -2 -1 -1 -1 -1 -0 0 0 1 2
-14 -13 -13 -13 -13 -13 -12 -12 -12 -11 -11 -11 -11 -10 -10 -10 -9 -9 -8 -8 -8 -7 -7 -6 -6 -5 -5 -5 -4 -4 -3 -3 -3 -3 -2 -2 -1 -1 -1 -1 -0 1 1
-13 -14 -14 -13 -13 -13 -13 -12 -12 -12 -12 -12 -11 -11 -11 -10 -10 -10 -9 -9 -8 -8 -8 -7 -7 -6 -6 -5 -5 -4 -4 -4 -4 -3 -3 -3 -3 -3 -3 -2 -1 -1 1
-13 -13 -13 -13 -14 -13 -13 -13 -13 -13 -12 -12 -12 -12 -12 -11 -11 -10 -10 -9 -9 -9 -8 -8 -8 -7 -7 -6 -5 -5 -4 -4 -4 -4 -4 -4 -4 -4 -5 -5 -4 -3 -2
-14 -13 -13 -13 -13 -14 -14 -13 -13 -13 -13 -13 -12 -12 -12 -12 -11 -11 -11 -10 -10 -9 -9 -9 -8 -8 -7 -7 -6 -5 -5 -4 -4 -4 -4 -5 -5 -5 -6 -6 -6 -5 -4
-14 -14 -13 -13 -13 -13 -13 -13 -13 -13 -13 -13 -13 -12 -12 -12 -12 -12 -11 -11 -10 -10 -10 -9 -9 -8 -8 -7 -7 -6 -6 -6 -5 -5 -5 -6 -6 -6 -6 -6 -6 -5 -4
-15 -14 -14 -14 -14 -14 -13 -13 -13 -13 -13 -13 -13 -13 -13 -13 -13 -12 -12 -12 -11 -11 -10 -10 -9 -9 -8 -8 -8 -7 -7 -7 -6 -6 -6 -7 -6 -6 -6 -6 -6 -5 -4
-14 -15 -15 -15 -14 -14 -14 -14 -14 -14 -13 -13 -13 -13 -13 -13 -13 -13 -12 -12 -12 -11 -11 -10 -10 -9 -9 -9 -9 -8 -8 -7 -7 -7 -7 -7 -6 -6 -6 -6 -6 -5 -4
-15 -15 -15 -15 -15 -15 -14 -14 -14 -14 -15 -14 -14 -14 -14 -14 -14 -13 -13 -13 -13 -12 -12 -11 -11 -11 -10 -10 -9 -9 -8 -8 -8 -8 -7 -7 -7 -7 -6 -6 -6 -5 -6
-16 -16 -16 -16 -16 -16 -16 -15 -15 -15 -15 -15 -14 -14 -15 -15 -15 -14 -14 -14 -13 -13 -13 -12 -12 -12 -11 -11 -10 -10 -10 -10 -9 -9 -8 -8 -8 -7 -7 -6 -6 -7 -7
-17 -17 -17 -17 -17 -17 -17 -17 -17 -17 -16 -16 -15 -15 -15 -15 -15 -15 -15 -14 -14 -14 -13 -13 -13 -13 -12 -12 -12 -11 -11 -11 -10 -10 -9 -8 -7 -8 -7 -8 -7 -8 -8
-18 -17 -17 -17 -17 -18 -18 -18 -18 -17 -17 -16 -16 -16 -16 -16 -16 -16 -15 -15 -15 -15 -14 -14 -14 -14 -14 -13 -13 -12 -12 -11 -11 -10 -9 -9 -9 -9 -9 -9 -9 -9 -9
-18 -18 -18 -17 -18 -18 -18 -18 -18 -17 -17 -17 -17 -17 -16 -16 -16 -16 -16 -16 -16 -16 -15 -15 -15 -15 -15 -14 -14 -13 -12 -12 -11 -10 -10 -10 -10 -10 -10 -9 -10 -11 -10
-19 -18 -18 -18 -18 -18 -18 -18 -18 -18 -18 -17 -17 -17 -17 -17 -17 -17 -17 -17 -17 -17 -16 -16 -16 -16 -16 -15 -15 -14 -13 -13 -12 -11 -11 -11 -11 -11 -11 -10 -10 -11 -11
-19 -19 -19 -18 -19 -19 -19 -18 -18 -19 -19 -18 -18 -18 -18 -18 -18 -18 -18 -18 -18 -18 -18 -18 -17 -17 -16 -16 -16 -15 -14 -14 -13 -12 -12 -11 -11 -11 -12 -11 -11 -11 -12
-21 -20 -20 -20 -20 -20 -20 -20 -19 -20 -19 -19 -19 -19 -19 -19 -19 -19 -20 -19 -19 -19 -19 -18 -18 -18 -17 -17 -16 -16 -15 -15 -14 -13 -12 -12 -12 -11 -11 -12 -12 -12 -12
-22 -22 -22 -22 -21 -21 -21 -21 -21 -20 -20 -20 -20 -20 -20 -19 -19 -20 -21 -20 -20 -20 -20 -19 -19 -18 -18 -17 -17 -16 -16 -15 -15 -13 -13 -12 -12 -12 -11 -11 -12 -12 -12
-22 -22 -23 -23 -22 -22 -22 -22 -21 -21 -21 -21 -21 -21 -21 -20 -20 -21 -22 -22 -21 -21 -20 -20 -19 -19 -19 -18 -18 -18 -17 -16 -16 -15 -14 -13 -13 -13 -12 -12 -12 -12 -12
-23 -23 -23 -23 -23 -23 -23 -23 -22 -22 -22 -22 -22 -21 -21 -21 -22 -22 -23 -23 -22 -22 -22 -21 -20 -20 -20 -19 -19 -19 -18 -18 -17 -16 -16 -15 -14 -14 -13 -13 -12 -12 -12
-24 -24 -24 -24 -24 -23 -23 -23 -23 -22 -22 -22 -22 -22 -22 -22 -22 -23 -23 -23 -23 -23 -22 -22 -21 -21 -21 -20 -20 -19 -19 -19 -18 -18 -17 -16 -15 -14 -14 -13 -13 -13 -12
Height
3001 3004 3007 3010 3013 3015 3016 3018 3021 3025 3027 3030 3032 3032 3036 3039 3041 3044 3046 3048 3050 3052 3054 3058 3059 3060 3062 3064 3065 3067 3068 3069 3069 3073 3074 3076 3077 3078 3080 3081 3081 3082 3082
2996 2999 3001 3004 3006 3008 3010 3013 3016 3018 3020 3022 3023 3025 3028 3030 3033 3034 3036 3038 3041 3043 3045 3047 3048 3049 3052 3053 3054 3055 3056 3058 3058 3060 3062 3064 3065 3066 3067 3069 3070 3070 3071
2993 2995 2998 3000 3001 3003 3005 3007 3009 3011 3012 3014 3016 3018 3020 3022 3023 3024 3026 3028 3031 3033 3035 3036 3037 3038 3040 3042 3043 3044 3046 3047 3047 3048 3049 3051 3052 3053 3055 3056 3057 3059 3059
2988 2990 2993 2995 2997 2999 3001 3003 3004 3006 3007 3008 3009 3011 3012 3013 3014 3016 3018 3020 3022 3023 3024 3025 3026 3028 3030 3031 3033 3034 3034 3035 3035 3036 3037 3037 3038 3039 3040 3041 3044 3043 3044
2983 2985 2987 2988 2990 2992 2995 2996 2998 2999 3000 3001 3002 3003 3004 3005 3006 3008 3009 3011 3012 3013 3014 3015 3016 3018 3019 3020 3021 3023 3023 3024 3024 3024 3025 3025 3025 3024 3024 3025 3026 3027 3030
2976 2978 2980 2981 2983 2985 2986 2988 2989 2990 2992 2993 2994 2995 2996 2996 2998 2999 3000 3001 3002 3003 3004 3004 3006 3007 3008 3010 3010 3011 3012 3012 3012 3012 3012 3013 3013 3010 3009 3009 3009 3009 3012
2969 2971 2972 2973 2975 2976 2977 2978 2980 2982 2983 2984 2985 2986 2987 2988 2989 2989 2990 2992 2993 2993 2994 2995 2996 2997 2997 2998 2999 2999 3000 3000 3000 3000 3000 2999 2998 2997 2996 2994 2993 2992 2994
2961 2963 2964 2965 2966 2967 2968 2970 2970 2972 2973 2975 2976 2977 2979 2980 2980 2980 2981 2982 2983 2984 2985 2985 2986 2987 2987 2987 2987 2988 2989 2989 2988 2987 2984 2984 2984 2983 2980 2977 2976 2975 2976
2953 2954 2955 2956 2957 2959 2960 2962 2962 2963 2964 2966 2966 2968 2969 2969 2970 2971 2971 2972 2973 2974 2975 2975 2975 2976 2977 2977 2975 2975 2976 2977 2975 2974 2972 2970 2969 2968 2966 2961 2961 2958 2956
2944 2945 2946 2947 2949 2951 2952 2953 2953 2955 2956 2956 2957 2958 2959 2961 2961 2962 2961 2962 2964 2965 2965 2965 2965 2965 2966 2965 2964 2963 2963 2965 2963 2962 2960 2957 2956 2953 2951 2949 2946 2941 2941
2934 2935 2936 2938 2940 2942 2943 2944 2946 2947 2947 2948 2949 2950 2951 2952 2952 2953 2953 2953 2955 2955 2956 2955 2955 2955 2955 2955 2953 2952 2951 2950 2950 2948 2947 2946 2944 2941 2939 2937 2935 2930 2926
2924 2925 2926 2928 2929 2931 2933 2935 2937 2938 2939 2940 2941 2942 2943 2944 2944 2945 2945 2945 2946 2946 2946 2946 2946 2945 2945 2944 2944 2942 2941 2939 2938 2937 2935 2934 2932 2930 2927 2925 2923 2919 2915
2912 2914 2916 2917 2919 2920 2923 2924 2927 2929 2931 2932 2933 2934 2935 2936 2937 2937 2938 2938 2938 2938 2938 2938 2938 2937 2936 2936 2935 2933 2931 2929 2927 2925 2924 2922 2920 2917 2915 2912 2909 2906 2900
2901 2903 2905 2906 2908 2910 2911 2914 2916 2919 2922 2924 2925 2926 2926 2927 2928 2929 2930 2930 2930 2930 2930 2930 2929 2928 2927 2926 2925 2924 2922 2920 2917 2915 2912 2910 2908 2905 2901 2897 2894 2890 2885
2890 2892 2894 2895 2897 2898 2900 2902 2905 2908 2912 2914 2915 2917 2918 2919 2920 2921 2922 2922 2921 2921 2921 2920 2920 2919 2918 2917 2916 2915 2913 2911 2908 2905 2902 2899 2896 2893 2890 2885 2880 2874 2867
2879 2881 2884 2885 2886 2886 2888 2890 2893 2896 2901 2903 2905 2908 2909 2911 2912 2913 2914 2914 2914 2914 2914 2913 2913 2912 2911 2910 2908 2906 2904 2902 2899 2896 2893 2888 2885 2881 2876 2873 2867 2861 2854
2868 2871 2873 2874 2875 2876 2877 2879 2882 2887 2890 2893 2896 2899 2900 2903 2904 2905 2906 2906 2907 2906 2906 2906 2905 2905 2904 2902 2901 2899 2897 2895 2892 2889 2885 2881 2877 2872 2865 2859 2854 2850 2836
2859 2861 2862 2863 2865 2867 2868 2871 2874 2877 2881 2884 2887 2889 2892 2894 2895 2897 2898 2898 2899 2899 2898 2898 2898 2897 2897 2895 2894 2892 2890 2888 2885 2881 2878 2874 2870 2865 2859 2852 2845 2838 2821
2850 2851 2853 2854 2855 2858 2860 2863 2866 2868 2872 2875 2878 2880 2883 2885 2887 2888 2890 2891 2892 2892 2892 2892 2892 2891 2891 2889 2888 2885 2884 2881 2879 2875 2871 2867 2863 2858 2854 2844 2838 2827 2819
2842 2843 2844 2845 2847 2849 2852 2855 2858 2861 2863 2866 2869 2872 2875 2877 2879 2881 2883 2884 2885 2886 2886 2886 2886 2886 2885 2884 2882 2880 2878 2875 2872 2869 2865 2861 2858 2852 2847 2839 2831 2820 2815
2835 2835 2836 2837 2838 2840 2843 2847 2851 2853 2856 2859 2862 2865 2867 2869 2871 2874 2876 2878 2879 2880 2881 2881 2881 2880 2880 2878 2876 2874 2872 2870 2867 2864 2860 2856 2852 2848 2842 2834 2825 2819 2810
2829 2829 2830 2831 2832 2834 2837 2840 2843 2846 2849 2852 2855 2858 2860 2862 2865 2867 2870 2872 2873 2875 2875 2876 2876 2875 2874 2873 2871 2870 2868 2865 2862 2860 2856 2852 2848 2843 2837 2830 2822 2815 2809
2824 2824 2825 2826 2828 2829 2831 2834 2837 2839 2842 2845 2848 2851 2854 2856 2858 2861 2864 2866 2868 2869 2870 2871 2871 2870 2869 2868 2866 2864 2863 2860 2857 2854 2851 2847 2843 2839 2833 2826 2819 2812 2806
2820 2820 2821 2822 2823 2825 2827 2829 2832 2834 2837 2839 2842 2845 2848 2850 2853 2855 2858 2861 2863 2865 2866 2866 2866 2865 2864 2863 2861 2859 2857 2855 2853 2850 2846 2843 2839 2835 2830 2824 2818 2811 2805
2817 2816 2817 2818 2819 2821 2823 2825 2827 2829 2832 2834 2837 2840 2842 2845 2847 2850 2853 2856 2858 2860 2861 2862 2861 2861 2860 2858 2857 2855 2854 2851 2849 2847 2843 2839 2835 2831 2826 2822 2816 2811 2805
2814 2814 2814 2815 2816 2817 2819 2821 2823 2825 2827 2830 2832 2835 2838 2840 2843 2846 2849 2852 2854 2855 2857 2857 2857 2856 2855 2854 2853 2851 2850 2848 2845 2842 2839 2836 2832 2829 2825 2820 2815 2810 2805
Wind_Speed
27 27 26 26 26 27 28 29 30 31 31 32 33 33 34 35 36 37 37 38 39 40 40 41 41 42 43 43 43 44 45 46 48 45 45 44 44 44 44 44 46 47 49
27 27 27 26 26 26 26 27 27 28 29 30 31 32 33 34 34 35 36 36 37 38 39 40 40 41 41 42 43 44 45 46 48 48 47 46 46 46 46 47 47 48 49
25 25 24 25 25 26 26 26 26 27 26 27 28 29 31 32 33 34 35 36 36 37 38 39 39 40 41 42 43 45 46 47 47 48 49 49 49 48 48 49 50 50 51
31 30 29 28 28 27 26 26 28 27 27 27 28 30 31 32 33 34 35 36 37 38 38 39 39 40 41 42 43 44 45 46 47 49 50 51 52 52 53 53 52 52 54
30 30 30 30 31 34 35 38 38 37 36 36 35 34 34 34 35 35 36 37 38 39 40 40 41 42 43 44 44 45 46 48 49 51 52 53 55 56 57 56 57 56 54
28 30 31 28 27 26 28 28 29 30 30 33 36 39 41 43 43 43 40 39 39 40 40 41 42 43 43 44 45 46 47 49 50 51 52 53 54 56 58 58 59 59 58
28 28 29 29 28 29 30 31 31 31 32 31 32 32 34 35 37 38 40 41 41 41 41 41 42 43 44 44 45 46 47 48 49 50 51 52 54 56 57 58 59 60 60
25 25 26 27 28 27 28 29 32 33 33 33 33 33 32 32 31 32 34 35 36 36 36 37 38 38 39 41 42 44 44 45 45 47 51 52 53 54 56 57 59 61 61
28 27 27 27 27 28 27 24 27 30 31 31 31 31 31 31 30 30 31 32 32 32 33 34 35 35 35 38 40 41 41 40 42 45 48 50 51 51 52 56 57 59 62
30 30 32 31 29 27 27 29 28 26 27 29 30 30 30 29 29 29 30 31 30 29 31 31 32 32 33 35 38 40 40 38 40 41 43 45 47 48 48 49 53 57 58
34 34 34 34 34 32 30 30 29 28 28 26 27 28 28 28 28 28 29 30 29 28 28 29 30 31 31 32 35 37 38 39 38 41 41 42 43 45 46 45 48 53 57
36 36 36 36 35 36 37 36 33 30 29 29 29 28 28 28 27 27 28 28 28 27 27 28 28 29 29 30 32 34 35 36 37 37 39 39 41 41 43 44 45 49 54
38 37 37 39 39 38 38 40 40 37 34 31 30 30 30 29 29 28 27 27 27 26 26 26 26 27 27 27 28 29 29 32 34 35 37 38 39 41 42 44 46 49 54
39 38 37 38 39 39 40 40 41 41 38 34 32 31 31 30 30 29 27 27 26 26 25 24 24 24 24 25 26 27 28 30 32 33 34 35 36 38 40 43 45 47 51
37 36 36 36 37 39 40 40 41 42 38 35 35 34 32 31 31 29 28 27 26 25 24 24 23 23 23 24 25 26 27 28 29 30 32 33 35 37 38 38 40 43 47
33 33 34 35 37 38 38 39 40 42 39 37 36 33 32 31 31 29 28 26 25 24 23 23 22 22 21 22 23 25 27 28 29 30 31 34 36 36 37 37 40 43 44
30 30 31 32 33 35 34 35 37 37 36 36 35 33 32 31 30 28 26 25 24 23 22 20 20 19 19 20 21 22 24 26 27 28 29 31 35 34 36 39 41 46 43
29 28 29 29 29 32 31 32 34 34 35 34 33 32 32 30 28 27 25 24 22 22 20 19 18 17 17 18 20 21 22 24 25 26 27 28 31 32 34 37 42 44 43
27 27 27 28 28 30 31 31 32 32 33 33 31 31 32 29 27 26 24 22 20 19 18 17 16 16 16 17 19 20 21 22 22 23 25 27 29 30 29 32 41 37 40
24 25 25 27 27 30 32 32 32 30 30 32 30 29 29 28 26 24 22 20 19 18 16 15 15 15 15 16 18 18 19 20 21 22 24 26 27 28 28 26 33 36 35
20 20 21 22 25 29 31 32 30 29 30 29 30 27 27 26 25 22 21 19 17 16 15 14 14 14 15 15 16 17 18 19 19 20 22 24 25 25 26 26 28 31 32
16 16 17 17 20 23 25 27 29 29 28 28 27 26 26 25 23 21 19 18 16 14 13 13 14 14 14 14 14 15 15 17 17 18 19 20 22 23 25 24 24 28 28
14 15 15 16 17 19 22 24 25 26 25 25 24 25 23 23 22 20 18 17 15 13 13 12 13 13 13 13 13 13 13 14 16 16 16 19 20 20 22 24 26 25 27
11 13 15 17 17 18 18 20 21 22 23 23 23 22 23 22 21 20 18 16 14 13 12 12 12 13 13 13 13 13 15 15 15 16 16 18 20 21 20 22 23 25 24
9 10 14 16 17 15 17 17 19 20 21 21 21 21 22 22 21 20 19 17 16 14 12 12 12 13 13 13 13 12 13 16 16 14 15 17 19 21 22 22 22 21 23
8 9 11 13 14 15 16 16 17 18 19 19 19 20 21 22 21 20 18 16 13 10 10 11 11 11 12 13 14 15 13 12 15 16 16 17 17 19 20 21 21 21 20
Wind_Direction
230 233 235 237 238 240 242 244 246 248 250 251 252 252 252 251 251 252 253 253 254 254 255 255 256 258 259 260 261 262 263 264 264 263 263 263 265 265 264 265 266 267 268
226 227 229 232 236 240 242 245 246 248 249 250 252 252 253 253 253 253 253 253 254 255 256 257 258 259 260 261 262 263 263 264 265 265 265 265 265 266 266 265 265 268 267
234 234 235 236 238 241 243 245 248 250 252 253 254 255 255 256 257 257 258 259 259 259 260 261 261 262 262 263 263 264 264 265 266 267 267 267 267 267 267 267 266 265 266
237 235 236 240 242 248 252 255 256 256 257 258 259 260 260 260 260 260 261 261 261 262 263 263 263 263 264 265 265 266 267 268 269 270 270 271 272 271 271 270 266 265 264
247 238 242 247 251 251 252 254 257 260 263 263 263 263 264 265 264 264 264 265 265 265 266 266 266 267 267 268 268 269 270 271 271 272 273 273 274 273 273 272 271 269 266
248 247 250 257 256 253 250 253 254 255 257 260 263 263 263 264 264 264 265 266 266 267 267 267 267 267 267 268 268 269 270 271 272 272 272 272 273 273 274 274 273 272 270
259 259 260 261 262 262 260 257 257 257 258 259 260 261 261 261 261 262 263 264 265 266 267 268 268 269 268 268 268 268 269 270 271 272 273 273 273 273 274 275 276 275 274
260 258 258 258 257 256 258 258 256 256 257 259 260 260 260 260 261 262 263 263 264 264 265 265 266 266 267 267 267 267 268 270 272 273 273 274 274 275 276 276 276 275 273
260 260 260 260 258 255 256 260 256 254 256 258 259 260 261 262 263 264 265 266 267 267 267 267 267 267 269 268 268 268 269 272 273 273 274 276 277 277 277 278 278 278 276
260 257 257 257 258 257 256 256 259 261 260 260 261 260 260 262 264 265 267 269 271 271 270 270 271 273 272 272 273 273 274 274 274 275 276 277 278 278 278 278 280 279 278
260 258 258 258 257 257 255 257 260 261 262 264 264 264 264 263 264 267 269 271 272 273 274 274 275 274 275 275 275 277 278 278 278 279 278 278 277 277 277 277 278 279 280
260 260 259 259 258 256 256 257 259 262 263 262 264 265 266 266 266 268 270 272 274 275 275 276 277 278 277 277 276 276 278 280 280 279 279 278 277 276 275 275 275 276 277
259 259 258 258 259 259 256 255 256 258 260 263 263 264 266 265 267 269 271 273 274 275 275 276 277 277 278 278 277 278 281 282 283 282 281 279 278 277 276 276 277 279 281
258 259 259 258 258 258 258 256 255 254 256 259 262 264 264 265 266 269 271 273 276 276 277 277 278 280 282 285 287 287 287 286 285 286 286 286 284 282 282 283 286 289 289
254 256 257 259 260 261 260 259 254 252 251 253 256 259 262 263 265 268 271 273 276 279 281 282 284 286 287 287 288 288 288 289 292 294 296 296 294 289 287 290 295 299 302
253 253 253 258 261 261 261 257 251 247 246 248 252 255 257 259 262 263 265 269 272 274 276 277 279 281 283 285 288 291 294 296 297 299 302 303 301 299 298 297 302 306 305
257 255 256 257 257 258 258 253 246 242 243 244 248 250 253 254 257 259 263 267 269 272 272 274 276 279 282 285 288 289 292 295 297 299 301 302 302 305 305 307 307 305 320
259 257 258 257 255 251 249 246 241 239 241 243 245 247 249 250 252 255 259 263 266 268 270 272 274 278 284 289 291 292 296 298 300 302 302 303 302 307 307 313 313 310 326
260 259 258 257 253 245 243 245 243 240 242 243 242 244 245 246 249 252 255 258 260 263 265 269 275 280 286 289 292 296 298 300 302 303 303 307 309 311 312 321 315 321 321
260 257 255 254 250 242 240 239 243 242 242 243 241 240 243 245 246 248 249 251 254 258 262 269 276 281 285 289 293 297 300 303 305 305 307 310 313 317 320 323 322 326 326
264 258 255 250 244 238 236 239 240 241 241 243 242 239 241 242 242 242 243 246 249 253 260 267 274 279 284 288 293 298 301 303 304 306 308 310 316 320 323 329 327 332 332
265 255 252 245 241 237 233 232 233 235 237 237 238 238 239 240 240 237 236 239 243 248 256 265 272 277 281 285 290 295 301 304 306 308 307 313 320 323 325 330 333 335 343
264 247 242 238 234 231 229 229 231 232 231 232 234 237 240 239 235 230 231 235 239 245 253 262 269 275 281 287 294 300 303 309 313 315 317 322 325 328 330 334 337 346 347
266 244 236 236 237 236 234 230 229 229 228 229 232 235 237 235 228 224 226 230 237 244 250 260 270 279 286 293 301 310 316 320 327 326 327 328 331 333 336 337 340 344 353
266 247 235 235 239 236 231 227 228 228 227 229 230 233 233 228 222 221 223 226 235 245 257 266 270 275 283 292 300 307 317 319 325 331 333 333 333 335 337 340 342 346 349
282 250 240 236 236 233 231 229 228 231 231 231 231 231 230 223 219 221 226 232 238 251 265 272 277 281 287 294 301 308 314 320 326 334 337 336 336 335 338 338 342 344 350